Weather History for KTTN - December, 2011

Change the Weather History Date:

Friday, December 30, 2011

  Actual Average Record
Temperature  
Mean Temperature 41 °F 32 °F  
Max Temperature 53 °F 40 °F 62 °F (1990)
Min Temperature 29 °F 24 °F -8 °F (1880)
Degree Days  
Heating Degree Days 24 33  
Month to date heating degree days 680 886  
Since 1 July heating degree days 1393 1862  
Cooling Degree Days 0 0  
Month to date cooling degree days 0 0  
Year to date cooling degree days 1437 965  
Moisture  
Dew Point 31 °F    
Average Humidity 70    
Maximum Humidity 89    
Minimum Humidity 50    
Precipitation  
Precipitation 0.00 in 0.08 in 2.59 in (1948)
Month to date precipitation 4.42 3.61  
Year to date precipitation 59.78 46.35  
Sea Level Pressure  
Sea Level Pressure 29.98 in    
Wind  
Wind Speed 2 mph (SSE)    
Max Wind Speed 8 mph    
Max Gust Speed 12 mph    
Visibility 10 miles    
Events      
T = Trace of Precipitation, MM = Missing Value Source: NWS Daily Summary

Daily Weather History Graph

Daily Weather History Graph

Search for Another Location

Airport or City:

Trip Planner

Search our weather history database for the weather conditions in past years. The results will help you decide how hot, cold, wet, or windy it might be!

Date:

Astronomy

Dec. 30, 2011 Rise Set
Actual Time 7:21 AM EST 4:41 PM EST
Civil Twilight 6:50 AM EST 5:12 PM EST
Nautical Twilight 6:16 AM EST 5:46 PM EST
Astronomical Twilight 5:43 AM EST 6:19 PM EST
Moon 10:39 AM EST (12/30) 11:15 PM EST (12/30)
Length of Visible Light 10h 21m
Length of Day
9h 20m
Waxing Crescent, 35% of the Moon is Illuminated
Dec 30
Waxing Crescent
Jan 1
First Quarter
Jan 9
Full
Jan 16
Last Quarter
Jan 23
New

Hourly Weather History & Observations

Time (EST) Temp. Windchill Dew Point Humidity Pressure Visibility Wind Dir Wind Speed Gust Speed Precip Events Conditions
12:53 AM 36.0 °F - 25.0 °F 64% 29.98 in 10.0 mi Calm Calm - N/A   Overcast
1:53 AM 35.1 °F - 25.0 °F 67% 29.97 in 9.0 mi Calm Calm - N/A   Overcast
2:53 AM 35.1 °F 32.2 °F 25.0 °F 67% 29.97 in 10.0 mi NNE 3.5 mph - N/A   Overcast
3:53 AM 35.1 °F - 26.1 °F 70% 29.97 in 10.0 mi Calm Calm - N/A   Overcast
4:53 AM 33.1 °F - 25.0 °F 72% 29.98 in 10.0 mi Calm Calm - N/A   Partly Cloudy
5:53 AM 32.0 °F - 25.0 °F 75% 29.99 in 10.0 mi Calm Calm - N/A   Clear
6:53 AM 30.2 °F - 24.8 °F 80% 30.00 in 10.0 mi Calm Calm - N/A   Clear
7:53 AM 30.9 °F - 25.0 °F 79% 30.01 in 10.0 mi Calm Calm - N/A   Clear
8:53 AM 35.1 °F - 27.0 °F 72% 30.03 in 10.0 mi Calm Calm - N/A   Clear
9:53 AM 39.0 °F - 30.0 °F 70% 30.03 in 10.0 mi Calm Calm - N/A   Clear
10:53 AM 42.8 °F - 32.0 °F 66% 30.04 in 10.0 mi Calm Calm - N/A   Clear
11:53 AM 46.0 °F - 32.0 °F 58% 30.00 in 10.0 mi Calm Calm - N/A   Clear
12:53 PM 48.0 °F - 32.0 °F 54% 29.98 in 10.0 mi SSW 3.5 mph - N/A   Clear
1:53 PM 52.0 °F - 34.0 °F 50% 29.98 in 10.0 mi Variable 3.5 mph - N/A   Clear
2:53 PM 52.0 °F - 33.1 °F 49% 29.98 in 10.0 mi SSE 3.5 mph - N/A   Clear
3:53 PM 51.1 °F - 33.1 °F 50% 29.98 in 10.0 mi South 5.8 mph - N/A   Partly Cloudy
4:53 PM 51.1 °F - 33.1 °F 50% 29.97 in 10.0 mi ESE 3.5 mph - N/A   Partly Cloudy
5:53 PM 46.0 °F 43.1 °F 32.0 °F 58% 29.96 in 10.0 mi ESE 5.8 mph - N/A   Partly Cloudy
6:53 PM 45.0 °F 42.6 °F 33.1 °F 63% 29.96 in 10.0 mi ESE 4.6 mph - N/A   Clear
7:53 PM 45.0 °F 42.6 °F 33.1 °F 63% 29.97 in 10.0 mi South 4.6 mph - N/A   Clear
8:53 PM 43.0 °F 39.5 °F 36.0 °F 76% 29.96 in 10.0 mi SSE 5.8 mph - N/A   Clear
9:53 PM 44.1 °F 41.5 °F 37.9 °F 79% 29.96 in 10.0 mi South 4.6 mph - N/A   Clear
10:53 PM 43.0 °F 40.3 °F 39.0 °F 86% 29.94 in 10.0 mi SSE 4.6 mph - N/A   Clear
11:53 PM 41.0 °F 39.0 °F 37.9 °F 89% 29.91 in 8.0 mi SE 3.5 mph - N/A   Clear